This demonstration page uses our WeatherBlox Daily Observations layout. Learn more.

Left ArrowRight Arrow

Hourly Observations for May 31, 2020

Temp ( °F °C ) Dew Point ( °F °C ) Humidity (%) Winds ( mph kmh ) Pressure ( in mb ) Visibility ( mi km ) Precip ( " mm )
12:53 am 00:53 Clear 70 21.1 55 12.8 59 59 E 21 33 29.65 1004 10 16 0.00 0.00
1:53 am 01:53 Clear 65 18.3 54 12.2 68 68 E 16 26 29.63 1003 10 16 0.00 0.00
2:53 am 02:53 Clear 64 17.8 54 12.2 70 70 ENE 17 28 29.62 1003 10 16 0.00 0.00
3:06 am 03:06 Clear 64 17.8 54 12.2 70 70 E 21 33 29.58 1002 10 16 0.00 0.00
3:53 am 03:53 Clear 62 16.7 54 12.2 75 75 ENE 14 22 29.62 1003 10 16 0.00 0.00
4:53 am 04:53 Clear 59 15 53 11.7 81 81 ENE 12 19 29.62 1003 10 16 0.00 0.00
5:53 am 05:53 Sunny 58 14.4 53 11.7 84 84 ENE 9 15 29.61 1003 10 16 0.00 0.00
6:53 am 06:53 Sunny 60 15.6 54 12.2 80 80 ENE 14 22 29.60 1002 10 16 0.00 0.00
7:53 am 07:53 Sunny 66 18.9 56 13.3 70 70 E 12 19 29.58 1002 10 16 0.00 0.00
8:53 am 08:53 Sunny 69 20.6 57 13.9 66 66 ENE 12 19 29.56 1001 10 16 0.00 0.00
9:53 am 09:53 Sunny 72 22.2 59 15 64 64 ENE 12 19 29.54 1001 10 16 0.00 0.00
10:53 am 10:53 Sunny 80 26.7 62 16.7 54 54 ENE 5 7 29.53 1000 10 16 0.00 0.00
11:53 am 11:53 Sunny 85 29.4 59 15 42 42 W 5 7 29.54 1000 10 16 0.00 0.00
12:53 pm 12:53 Mostly Sunny 82 27.8 50 10 33 33 W 38 61 29.59 1002 10 16 0.00 0.00
1:53 pm 13:53 Sunny 79 26.1 47 8.3 32 32 W 17 28 29.65 1004 10 16 0.00 0.00
2:53 pm 14:53 Sunny 77 25 44 6.7 31 31 W 22 35 29.66 1004 10 16 0.00 0.00
3:53 pm 15:53 Sunny 80 26.7 44 6.7 28 28 WSW 16 26 29.65 1004 10 16 0.00 0.00
4:53 pm 16:53 Sunny 83 28.3 39 3.9 21 21 WSW 26 43 29.65 1004 10 16 0.00 0.00
5:53 pm 17:53 Sunny 82 27.8 38 3.3 21 21 WSW 29 46 29.66 1004 10 16 0.00 0.00
6:53 pm 18:53 Sunny 79 26.1 41 5 26 26 W 26 43 29.67 1005 10 16 0.00 0.00
7:53 pm 19:53 Sunny 73 22.8 39 3.9 29 29 WNW 24 39 29.69 1006 10 16 0.00 0.00
8:53 pm 20:53 Sunny 68 20 38 3.3 33 33 WNW 21 33 29.70 1006 10 16 0.00 0.00
9:53 pm 21:53 Clear 65 18.3 37 2.8 36 36 WNW 22 35 29.74 1007 10 16 0.00 0.00
10:53 pm 22:53 Clear 63 17.2 35 1.7 35 35 WNW 22 35 29.76 1008 10 16 0.00 0.00
11:53 pm 23:53 Clear 62 16.7 33 0.6 34 34 W 23 37 29.78 1008 10 16 0.00 0.00

Powered by AerisWeather